UAL1623 KLAX-KRNO

Flight info

Callsign UAL1623
Flight time 0h 59m
Altitude 34000
Route LADYJ4 CSTRO SHERF DNGLE1
Aircraft B738/M-SDE2E3FGHIRWXY/LB1

Departure

Time 2026-05-04 23:48
Airport Los Angeles International Airport (KLAX)

Arrival

Time 2026-05-05 00:48
Airport Reno Tahoe International Airport (KRNO)
Time Latitude Longitude Altitude Speed Heading
2026-05-04 23:21 33.94069 -118.40021 93 ft 0 kts 80°
2026-05-04 23:34 33.94069 -118.40022 92 ft 0 kts 80°
2026-05-04 23:38 33.94069 -118.40024 92 ft 2 kts 80°
2026-05-04 23:39 33.94065 -118.40048 92 ft 4 kts 83°
2026-05-04 23:39 33.94068 -118.40070 92 ft 4 kts 160°
2026-05-04 23:39 33.94066 -118.40072 92 ft 4 kts 173°
2026-05-04 23:39 33.94047 -118.40069 93 ft 0 kts 173°
2026-05-04 23:42 33.94039 -118.40068 94 ft 4 kts 174°
2026-05-04 23:42 33.93988 -118.40061 94 ft 11 kts 171°
2026-05-04 23:43 33.93902 -118.40036 96 ft 13 kts 142°
2026-05-04 23:43 33.93886 -118.39935 96 ft 13 kts 84°
2026-05-04 23:43 33.93895 -118.39828 96 ft 13 kts 83°
2026-05-04 23:43 33.93907 -118.39720 94 ft 13 kts 82°
2026-05-04 23:44 33.93918 -118.39615 94 ft 12 kts 83°
2026-05-04 23:44 33.93928 -118.39512 95 ft 12 kts 83°
2026-05-04 23:44 33.93938 -118.39414 96 ft 12 kts 83°
2026-05-04 23:44 33.93949 -118.39308 92 ft 13 kts 83°
2026-05-04 23:45 33.93960 -118.39202 92 ft 13 kts 82°
2026-05-04 23:45 33.93971 -118.39099 93 ft 12 kts 83°
2026-05-04 23:45 33.93981 -118.38997 93 ft 12 kts 83°
2026-05-04 23:45 33.93991 -118.38895 93 ft 12 kts 83°
2026-05-04 23:46 33.94002 -118.38786 93 ft 14 kts 83°
2026-05-04 23:46 33.94015 -118.38662 95 ft 16 kts 83°
2026-05-04 23:46 33.94029 -118.38530 95 ft 16 kts 83°
2026-05-04 23:46 33.94041 -118.38402 98 ft 15 kts 83°
2026-05-04 23:47 33.94054 -118.38280 96 ft 14 kts 83°
2026-05-04 23:47 33.94066 -118.38159 93 ft 15 kts 83°
2026-05-04 23:47 33.94074 -118.38035 92 ft 13 kts 104°
2026-05-04 23:47 33.94003 -118.38007 93 ft 12 kts 211°
2026-05-04 23:48 33.93979 -118.38065 94 ft 12 kts 261°
2026-05-04 23:48 33.93951 -118.38343 98 ft 71 kts 263°
2026-05-04 23:48 33.93858 -118.39255 104 ft 144 kts 263°
2026-05-04 23:48 33.93740 -118.40523 856 ft 154 kts 264°
2026-05-04 23:49 33.93646 -118.41821 1922 ft 158 kts 263°
2026-05-04 23:49 33.93517 -118.43205 2746 ft 175 kts 261°
2026-05-04 23:49 33.93366 -118.44744 3490 ft 191 kts 262°
2026-05-04 23:49 33.93213 -118.46373 4202 ft 201 kts 262°
2026-05-04 23:50 33.93054 -118.48129 4757 ft 224 kts 263°
2026-05-04 23:50 33.92864 -118.50142 5220 ft 253 kts 263°
2026-05-04 23:50 33.92670 -118.52228 6348 ft 253 kts 264°
2026-05-04 23:50 33.92483 -118.54371 7291 ft 257 kts 264°
2026-05-04 23:51 33.92300 -118.56520 7808 ft 259 kts 263°
2026-05-04 23:51 33.92117 -118.58695 8561 ft 266 kts 263°
2026-05-04 23:51 33.92113 -118.60924 9602 ft 271 kts 281°
2026-05-04 23:51 33.92909 -118.63007 10505 ft 285 kts 303°
2026-05-04 23:52 33.94466 -118.64677 10832 ft 320 kts 326°
2026-05-04 23:52 33.96481 -118.66007 11368 ft 338 kts 329°
2026-05-04 23:52 33.98620 -118.67278 12123 ft 350 kts 337°
2026-05-04 23:52 34.01057 -118.67713 13007 ft 361 kts 358°
2026-05-04 23:53 34.03586 -118.67553 13966 ft 366 kts
2026-05-04 23:53 34.06145 -118.67344 14741 ft 372 kts
2026-05-04 23:53 34.08752 -118.67081 15479 ft 380 kts
2026-05-04 23:53 34.11394 -118.66506 16264 ft 388 kts
2026-05-04 23:54 34.14055 -118.65800 16964 ft 396 kts
2026-05-04 23:54 34.16780 -118.65082 17649 ft 404 kts
2026-05-04 23:54 34.19550 -118.64395 18422 ft 408 kts
2026-05-04 23:54 34.22353 -118.63726 19086 ft 413 kts
2026-05-04 23:55 34.25207 -118.63356 19697 ft 411 kts 351°
2026-05-04 23:55 34.28001 -118.63938 20398 ft 407 kts 342°
2026-05-04 23:55 34.33581 -118.65330 21705 ft 417 kts 342°
2026-05-04 23:56 34.36446 -118.66003 22306 ft 422 kts 341°
2026-05-04 23:56 34.39344 -118.66666 22963 ft 426 kts 341°
2026-05-04 23:56 34.42262 -118.67328 23717 ft 424 kts 341°
2026-05-04 23:56 34.45136 -118.67937 24721 ft 414 kts 341°
2026-05-04 23:57 34.47954 -118.68479 25681 ft 406 kts 341°
2026-05-04 23:57 34.50716 -118.68999 26578 ft 399 kts 340°
2026-05-04 23:57 34.53464 -118.69520 27242 ft 401 kts 340°
2026-05-04 23:57 34.56228 -118.70059 27797 ft 404 kts 339°
2026-05-04 23:58 34.59015 -118.70611 28385 ft 406 kts 339°
2026-05-04 23:58 34.61804 -118.71156 29090 ft 405 kts 339°
2026-05-04 23:58 34.64576 -118.71693 29851 ft 402 kts 339°
2026-05-04 23:58 34.67340 -118.72233 30399 ft 403 kts 339°
2026-05-04 23:59 34.70108 -118.72778 30834 ft 405 kts 339°
2026-05-04 23:59 34.72804 -118.73588 31146 ft 391 kts 322°
2026-05-04 23:59 34.75178 -118.75149 31251 ft 391 kts 317°
2026-05-04 23:59 34.77565 -118.76851 31311 ft 404 kts 317°
2026-05-05 00:00 34.80022 -118.78608 31457 ft 415 kts 317°
2026-05-05 00:00 34.81684 -118.79783 31654 ft 418 kts 318°
2026-05-05 00:00 34.85073 -118.82145 32212 ft 421 kts 318°
2026-05-05 00:00 34.87601 -118.83889 32605 ft 424 kts 319°
2026-05-05 00:01 34.90176 -118.85662 32958 ft 427 kts 319°
2026-05-05 00:01 34.92773 -118.87449 33255 ft 430 kts 319°
2026-05-05 00:01 34.95389 -118.89248 33606 ft 433 kts 319°
2026-05-05 00:01 34.98025 -118.91063 33958 ft 436 kts 319°
2026-05-05 00:02 35.00686 -118.92901 33998 ft 444 kts 320°
2026-05-05 00:02 35.06153 -118.96687 34024 ft 459 kts 320°
2026-05-05 00:03 35.11742 -119.00544 33992 ft 462 kts 320°
2026-05-05 00:03 35.17334 -119.04406 33982 ft 461 kts 320°
2026-05-05 00:04 35.22908 -119.08271 33994 ft 460 kts 320°
2026-05-05 00:04 35.28457 -119.12127 33976 ft 457 kts 320°
2026-05-05 00:05 35.33975 -119.15971 33979 ft 455 kts 320°
2026-05-05 00:05 35.39461 -119.19798 33995 ft 454 kts 320°
2026-05-05 00:06 35.45094 -119.23368 33976 ft 471 kts 335°
2026-05-05 00:06 35.48397 -119.23983 34030 ft 487 kts 348°
2026-05-05 00:06 35.51789 -119.24204 34001 ft 489 kts 349°
2026-05-05 00:07 35.58605 -119.24483 34011 ft 490 kts 350°
2026-05-05 00:07 35.65419 -119.24794 34012 ft 490 kts 349°
2026-05-05 00:08 35.72225 -119.25179 34017 ft 490 kts 349°
2026-05-05 00:08 35.78990 -119.25593 34009 ft 489 kts 349°
2026-05-05 00:09 35.85785 -119.26013 34013 ft 488 kts 349°
2026-05-05 00:09 35.92563 -119.26428 34017 ft 487 kts 349°
2026-05-05 00:10 35.99322 -119.26841 34021 ft 485 kts 349°
2026-05-05 00:10 36.06061 -119.27254 34029 ft 484 kts 349°
2026-05-05 00:11 36.12785 -119.27667 34022 ft 483 kts 349°
2026-05-05 00:11 36.19497 -119.28080 34030 ft 482 kts 349°
2026-05-05 00:12 36.26200 -119.28493 34039 ft 482 kts 350°
2026-05-05 00:12 36.32900 -119.28907 34026 ft 482 kts 350°
2026-05-05 00:13 36.39593 -119.29320 34031 ft 481 kts 350°
2026-05-05 00:13 36.46281 -119.29733 34051 ft 481 kts 351°
2026-05-05 00:14 36.52949 -119.30139 34029 ft 479 kts 351°
2026-05-05 00:14 36.59591 -119.30556 34031 ft 476 kts 351°
2026-05-05 00:15 36.66195 -119.30970 34036 ft 474 kts 351°
2026-05-05 00:15 36.72763 -119.31380 34037 ft 472 kts 352°
2026-05-05 00:16 36.79320 -119.31790 34027 ft 471 kts 352°
2026-05-05 00:16 36.85826 -119.32197 34031 ft 470 kts 352°
2026-05-05 00:17 36.92368 -119.32607 34027 ft 471 kts 352°
2026-05-05 00:17 36.98913 -119.33018 34038 ft 471 kts 352°
2026-05-05 00:18 37.05470 -119.33431 34042 ft 472 kts 352°
2026-05-05 00:18 37.12045 -119.33845 34037 ft 472 kts 353°
2026-05-05 00:19 37.18589 -119.34258 34023 ft 469 kts 353°
2026-05-05 00:19 37.25096 -119.34668 34023 ft 466 kts 353°
2026-05-05 00:20 37.31518 -119.35075 34031 ft 464 kts 354°
2026-05-05 00:20 37.37951 -119.35483 34017 ft 462 kts 354°
2026-05-05 00:21 37.44351 -119.35888 34005 ft 460 kts 354°
2026-05-05 00:21 37.50741 -119.36435 34008 ft 459 kts 352°
2026-05-05 00:22 37.57083 -119.37247 34018 ft 456 kts 352°
2026-05-05 00:22 37.60216 -119.37657 33757 ft 450 kts 352°
2026-05-05 00:22 37.63298 -119.38049 33458 ft 440 kts 353°
2026-05-05 00:22 37.66325 -119.38425 33062 ft 435 kts 353°
2026-05-05 00:23 37.69327 -119.38791 32667 ft 430 kts 354°
2026-05-05 00:23 37.72292 -119.39151 32287 ft 426 kts 355°
2026-05-05 00:23 37.75227 -119.39504 31898 ft 421 kts 356°
2026-05-05 00:23 37.78129 -119.39855 31520 ft 417 kts 356°
2026-05-05 00:24 37.81000 -119.40203 31141 ft 412 kts 356°
2026-05-05 00:24 37.83800 -119.40543 30781 ft 407 kts 357°
2026-05-05 00:24 37.86606 -119.40884 30427 ft 403 kts 358°
2026-05-05 00:24 37.89382 -119.41220 30043 ft 398 kts 359°
2026-05-05 00:25 37.92157 -119.41560 29651 ft 392 kts
2026-05-05 00:25 37.94815 -119.41882 29299 ft 386 kts
2026-05-05 00:25 37.97469 -119.42202 28913 ft 380 kts
2026-05-05 00:25 38.00084 -119.42518 28556 ft 375 kts 360°
2026-05-05 00:26 38.02662 -119.42830 28190 ft 370 kts 360°
2026-05-05 00:26 38.05212 -119.43139 27834 ft 366 kts 360°
2026-05-05 00:26 38.07736 -119.43445 27459 ft 363 kts 360°
2026-05-05 00:26 38.10260 -119.43750 27079 ft 368 kts 359°
2026-05-05 00:27 38.12845 -119.44061 26720 ft 377 kts 359°
2026-05-05 00:27 38.15443 -119.44379 26337 ft 373 kts 359°
2026-05-05 00:27 38.18018 -119.44694 25960 ft 370 kts 358°
2026-05-05 00:27 38.20565 -119.45021 25676 ft 366 kts 358°
2026-05-05 00:28 38.23089 -119.45360 25391 ft 362 kts 358°
2026-05-05 00:28 38.25553 -119.45694 25136 ft 362 kts 358°
2026-05-05 00:28 38.28099 -119.46037 24865 ft 366 kts 358°
2026-05-05 00:28 38.30644 -119.46379 24570 ft 368 kts 357°
2026-05-05 00:29 38.33149 -119.46718 24289 ft 365 kts 357°
2026-05-05 00:29 38.35664 -119.47058 24014 ft 362 kts 357°
2026-05-05 00:29 38.38192 -119.47399 23726 ft 359 kts 357°
2026-05-05 00:29 38.40636 -119.47729 23459 ft 357 kts 357°
2026-05-05 00:30 38.43098 -119.48060 23141 ft 355 kts 357°
2026-05-05 00:30 38.45546 -119.48391 22873 ft 353 kts 357°
2026-05-05 00:30 38.47986 -119.48720 22582 ft 351 kts 357°
2026-05-05 00:30 38.50407 -119.49047 22327 ft 349 kts 358°
2026-05-05 00:31 38.52812 -119.49371 22032 ft 347 kts 358°
2026-05-05 00:31 38.55215 -119.49696 21769 ft 346 kts 358°
2026-05-05 00:31 38.57600 -119.50018 21508 ft 344 kts 358°
2026-05-05 00:31 38.59974 -119.50339 21252 ft 342 kts 357°
2026-05-05 00:32 38.62335 -119.50661 20963 ft 340 kts 357°
2026-05-05 00:32 38.64680 -119.50990 20615 ft 338 kts 357°
2026-05-05 00:32 38.67014 -119.51321 20213 ft 337 kts 357°
2026-05-05 00:32 38.69342 -119.51652 19784 ft 336 kts 357°
2026-05-05 00:33 38.71646 -119.51981 19494 ft 331 kts 357°
2026-05-05 00:33 38.73926 -119.52306 19140 ft 329 kts 357°
2026-05-05 00:33 38.76201 -119.52629 18741 ft 328 kts 357°
2026-05-05 00:33 38.78464 -119.52950 18369 ft 326 kts 357°
2026-05-05 00:34 38.79952 -119.53161 18137 ft 325 kts 357°
2026-05-05 00:34 38.82955 -119.53587 17597 ft 323 kts 356°
2026-05-05 00:34 38.85177 -119.53903 17274 ft 319 kts 356°
2026-05-05 00:34 38.87378 -119.54220 16988 ft 318 kts 357°
2026-05-05 00:35 38.88835 -119.54426 16802 ft 318 kts 357°
2026-05-05 00:35 38.91030 -119.54737 16521 ft 317 kts 357°
2026-05-05 00:35 38.93937 -119.55149 16145 ft 317 kts 357°
2026-05-05 00:35 38.96126 -119.55461 15887 ft 316 kts 357°
2026-05-05 00:36 38.98296 -119.55704 15640 ft 311 kts
2026-05-05 00:36 38.99754 -119.55749 15457 ft 309 kts
2026-05-05 00:36 39.01895 -119.55750 15212 ft 307 kts
2026-05-05 00:36 39.04028 -119.55736 14969 ft 306 kts
2026-05-05 00:37 39.06156 -119.55727 14724 ft 305 kts
2026-05-05 00:37 39.08280 -119.55726 14480 ft 305 kts
2026-05-05 00:37 39.10401 -119.55733 14266 ft 305 kts
2026-05-05 00:37 39.12492 -119.55746 14032 ft 304 kts
2026-05-05 00:38 39.14605 -119.55762 13797 ft 303 kts
2026-05-05 00:38 39.16715 -119.55781 13548 ft 303 kts
2026-05-05 00:38 39.18820 -119.55800 13287 ft 302 kts
2026-05-05 00:38 39.20921 -119.55821 13020 ft 301 kts
2026-05-05 00:39 39.23016 -119.55842 12762 ft 301 kts
2026-05-05 00:39 39.25111 -119.55862 12509 ft 301 kts
2026-05-05 00:39 39.27206 -119.55883 12234 ft 301 kts
2026-05-05 00:39 39.29297 -119.55905 11976 ft 300 kts
2026-05-05 00:40 39.31385 -119.55927 11719 ft 300 kts
2026-05-05 00:40 39.33476 -119.55948 11470 ft 300 kts
2026-05-05 00:40 39.35564 -119.55969 11212 ft 299 kts
2026-05-05 00:40 39.37633 -119.55991 10931 ft 296 kts
2026-05-05 00:41 39.39685 -119.56013 10687 ft 292 kts
2026-05-05 00:41 39.41695 -119.56034 10443 ft 287 kts
2026-05-05 00:41 39.43679 -119.56055 10201 ft 282 kts
2026-05-05 00:41 39.45625 -119.56075 10035 ft 276 kts
2026-05-05 00:42 39.47506 -119.56095 9979 ft 265 kts
2026-05-05 00:42 39.49294 -119.56334 9950 ft 257 kts 343°
2026-05-05 00:42 39.50874 -119.57434 9641 ft 261 kts 327°
2026-05-05 00:42 39.52344 -119.58815 9317 ft 259 kts 326°
2026-05-05 00:43 39.53777 -119.60187 8968 ft 253 kts 325°
2026-05-05 00:43 39.55174 -119.61525 8625 ft 247 kts 325°
2026-05-05 00:43 39.56544 -119.62824 8307 ft 241 kts 325°
2026-05-05 00:43 39.57883 -119.64087 8004 ft 235 kts 324°
2026-05-05 00:44 39.59189 -119.65318 7732 ft 229 kts 323°
2026-05-05 00:44 39.60339 -119.66689 7438 ft 221 kts 309°
2026-05-05 00:44 39.61041 -119.68370 7135 ft 210 kts 289°
2026-05-05 00:44 39.61259 -119.70189 6872 ft 201 kts 272°
2026-05-05 00:45 39.61081 -119.71956 6631 ft 196 kts 258°
2026-05-05 00:45 39.60580 -119.73551 6364 ft 186 kts 244°
2026-05-05 00:45 39.59818 -119.74826 6115 ft 173 kts 229°
2026-05-05 00:45 39.58878 -119.75765 5953 ft 168 kts 215°
2026-05-05 00:46 39.57814 -119.76389 5715 ft 169 kts 200°
2026-05-05 00:46 39.56671 -119.76663 5492 ft 167 kts 190°
2026-05-05 00:46 39.55502 -119.76637 5292 ft 168 kts 181°
2026-05-05 00:46 39.54352 -119.76631 5156 ft 163 kts 187°
2026-05-05 00:47 39.53215 -119.76673 4931 ft 163 kts 186°
2026-05-05 00:47 39.52089 -119.76673 4717 ft 161 kts 186°
2026-05-05 00:47 39.50982 -119.76677 4524 ft 153 kts 184°
2026-05-05 00:47 39.50049 -119.76677 4514 ft 106 kts 180°
2026-05-05 00:48 39.49639 -119.76681 4515 ft 23 kts 185°
2026-05-05 00:48 39.49545 -119.76724 4517 ft 14 kts 208°
2026-05-05 00:48 39.49464 -119.76782 4514 ft 10 kts 209°
2026-05-05 00:48 39.49425 -119.76811 4514 ft 6 kts 210°
2026-05-05 00:49 39.49387 -119.76840 4514 ft 7 kts 211°
2026-05-05 00:49 39.49337 -119.76891 4513 ft 10 kts 229°
2026-05-05 00:49 39.49290 -119.76980 4514 ft 14 kts 239°
2026-05-05 00:49 39.49253 -119.77094 4511 ft 12 kts 262°
2026-05-05 00:50 39.49296 -119.77153 4512 ft 10 kts 351°
2026-05-05 00:50 39.49365 -119.77154 4513 ft 10 kts 360°
2026-05-05 00:50 39.49455 -119.77154 4512 ft 16 kts
2026-05-05 00:50 39.49572 -119.77155 4512 ft 17 kts 359°
2026-05-05 00:51 39.49687 -119.77155 4511 ft 16 kts
2026-05-05 00:51 39.49798 -119.77155 4512 ft 16 kts 359°
2026-05-05 00:51 39.49903 -119.77158 4512 ft 15 kts 360°
2026-05-05 00:51 39.50004 -119.77155 4513 ft 14 kts
2026-05-05 00:52 39.50099 -119.77154 4513 ft 13 kts 359°
2026-05-05 00:52 39.50190 -119.77154 4513 ft 13 kts 360°
2026-05-05 00:52 39.50277 -119.77153 4513 ft 12 kts
2026-05-05 00:52 39.50363 -119.77150 4513 ft 13 kts
2026-05-05 00:53 39.50449 -119.77151 4512 ft 12 kts 359°
2026-05-05 00:53 39.50533 -119.77152 4512 ft 13 kts 359°
2026-05-05 00:53 39.50589 -119.77182 4513 ft 8 kts 279°
2026-05-05 00:53 39.50590 -119.77251 4512 ft 7 kts 271°
2026-05-05 00:54 39.50590 -119.77317 4512 ft 7 kts 270°
2026-05-05 00:54 39.50606 -119.77372 4513 ft 7 kts 321°
2026-05-05 00:54 39.50641 -119.77380 4513 ft 0 kts
2026-05-05 00:54 39.50649 -119.77380 4512 ft 2 kts 360°
2026-05-05 00:55 39.50650 -119.77380 4512 ft 0 kts 360°
2026-05-05 00:57 39.50649 -119.77380 4512 ft 0 kts 360°